Weather History for KSNY - January, 2013

Change the Weather History Date:

Friday, January 4, 2013

  Actual Average Record
Temperature  
Mean Temperature 28 °F 29 °F  
Max Temperature 45 °F 42 °F 64 °F (1956)
Min Temperature 10 °F 16 °F -24 °F (1972)
Degree Days  
Heating Degree Days 37 36  
Month to date heating degree days 173 144  
Since 1 July heating degree days 2729 2691  
Cooling Degree Days 0 0  
Month to date cooling degree days 0 0  
Year to date cooling degree days 0 0  
Moisture  
Dew Point 11 °F    
Average Humidity 60    
Maximum Humidity 84    
Minimum Humidity 36    
Precipitation  
Precipitation 0.00 in 0.01 in 0.34 in (1963)
Month to date precipitation T 0.03  
Year to date precipitation T 0.03  
Sea Level Pressure  
Sea Level Pressure 30.23 in    
Wind  
Wind Speed 9 mph (WNW)    
Max Wind Speed 17 mph    
Max Gust Speed 20 mph    
Visibility 10 miles    
Events      
T = Trace of Precipitation, MM = Missing Value Source: NWS Daily Summary

Daily Weather History Graph

Daily Weather History Graph

Search for Another Location

Airport or City:

Trip Planner

Search our weather history database for the weather conditions in past years. The results will help you decide how hot, cold, wet, or windy it might be!

Date:

Astronomy

Jan. 04, 2013 Rise Set
Actual Time 7:17 AM MST 4:37 PM MST
Civil Twilight 6:46 AM MST 5:08 PM MST
Nautical Twilight 6:11 AM MST 5:42 PM MST
Astronomical Twilight 5:38 AM MST 6:15 PM MST
Moon No Moon Rise 10:57 AM MST (1/4)
Length of Visible Light 10h 21m
Length of Day
9h 19m
Waning Gibbous, 54% of the Moon is Illuminated
Jan 4
Waning Gibbous
Jan 4
Last Quarter
Jan 11
New
Jan 18
First Quarter
Jan 26
Full

Hourly Weather History & Observations

Time (MST) Temp. Windchill Dew Point Humidity Pressure Visibility Wind Dir Wind Speed Gust Speed Precip Events Conditions
12:53 AM 17.1 °F 4.3 °F 3.9 °F 56% 30.29 in 10.0 mi West 11.5 mph - N/A   Clear
1:53 AM 19.0 °F 6.1 °F 5.0 °F 54% 30.27 in 10.0 mi WNW 12.7 mph - N/A   Clear
2:53 AM 17.1 °F 3.6 °F 5.0 °F 59% 30.27 in 10.0 mi WNW 12.7 mph - N/A   Clear
3:53 AM 15.1 °F 0.5 °F 3.9 °F 61% 30.29 in 10.0 mi WNW 13.8 mph - N/A   Clear
4:53 AM 12.9 °F -1.6 °F 3.0 °F 65% 30.32 in 10.0 mi WNW 12.7 mph - N/A   Clear
5:53 AM 12.9 °F 5.2 °F 3.0 °F 65% 30.35 in 10.0 mi WNW 4.6 mph - N/A   Clear
6:53 AM 10.0 °F 0.4 °F 1.0 °F 67% 30.36 in 10.0 mi WNW 5.8 mph - N/A   Clear
7:53 AM 14.0 °F 0.5 °F 3.9 °F 64% 30.33 in 10.0 mi WNW 11.5 mph - N/A   Clear
8:53 AM 21.0 °F 9.9 °F 8.1 °F 57% 30.31 in 10.0 mi WNW 10.4 mph - N/A   Clear
9:53 AM 27.0 °F 16.1 °F 12.0 °F 53% 30.29 in 10.0 mi WNW 12.7 mph - N/A   Clear
10:53 AM 32.0 °F 25.6 °F 17.1 °F 54% 30.27 in 10.0 mi WNW 6.9 mph - N/A   Clear
11:53 AM 37.9 °F 32.7 °F 16.0 °F 41% 30.25 in 10.0 mi WSW 6.9 mph - N/A   Clear
12:53 PM 39.9 °F 35.8 °F 21.0 °F 47% 30.17 in 10.0 mi SW 5.8 mph - N/A   Clear
1:53 PM 42.1 °F 39.2 °F 18.0 °F 38% 30.12 in 10.0 mi NW 4.6 mph - N/A   Clear
2:53 PM 44.1 °F - 21.0 °F 40% 30.11 in 10.0 mi Calm Calm - N/A   Clear
3:53 PM 39.9 °F 37.8 °F 21.9 °F 49% 30.12 in 10.0 mi NE 3.5 mph - N/A   Clear
4:53 PM 32.0 °F 28.7 °F 19.0 °F 59% 30.14 in 10.0 mi ESE 3.5 mph - N/A   Clear
5:53 PM 21.9 °F - 16.0 °F 78% 30.19 in 10.0 mi Calm Calm - N/A   Clear
6:53 PM 18.0 °F 8.7 °F 14.0 °F 84% 30.22 in 10.0 mi SW 6.9 mph - N/A   Clear
7:53 PM 19.0 °F 10.0 °F 14.0 °F 81% 30.20 in 10.0 mi West 6.9 mph - N/A   Clear
8:53 PM 21.0 °F 9.9 °F 14.0 °F 74% 30.18 in 10.0 mi WNW 10.4 mph - N/A   Clear
9:53 PM 16.0 °F 2.9 °F 10.9 °F 81% 30.17 in 10.0 mi WNW 11.5 mph - N/A   Clear
10:53 PM 21.0 °F 8.1 °F 12.0 °F 68% 30.13 in 10.0 mi NW 13.8 mph - N/A   Clear
11:53 PM 23.0 °F 9.6 °F 10.9 °F 60% 30.09 in 10.0 mi WNW 16.1 mph - N/A   Clear